Location: Pcim
(49.7500°N, 19.9670°E)
Time: 21:14:24
(UTC+02:00)

MOZHAYETS 4 - Pass Details

Date: 30 April 2024
Orbit: 652 x 670 km, 98.3° (Epoch: 20 May)

Event Time Altitude Azimuth Distance (km) Brightness Sun altitude
Rises 02:16:09 0° 115° (ESE) 3,014 11.1 -21.8°
Reaches altitude 10° 02:19:07 10° 94° (E) 2,104 10.5 -21.6°
Maximum altitude 02:21:54 16° 57° (ENE) 1,730 10.6 -21.4°
Drops below altitude 10° 02:24:41 10° 19° (NNE) 2,109 11.4 -21.2°
Sets 02:27:39 0° 359° (N) 3,025 12.1 -21.0°
